When you browse on this site, cookies collect data to enhance your experience and personalize the content and advertising you see.
Visit our Privacy Policy to learn more. By continuing to use the site, you agree to this use of cookies and data.
  • In Denmark
  • List of Countries
  • For 7 days
  • Water Temperature
  • Satellite Maps
  • Weather Map
  • Weather Widgets
  • user-avatar
    Login

    Hourly Weather Lampeter

    Today, 22 April, Monday

    Time Temperature Precipitation Wind Pressure Humidity
    00:00 +11°C° 0 mm 3 mps 752 mmHg 60%
    01:00 +11°C° 0 mm 3 mps 752 mmHg 61%
    02:00 +10°C° 0 mm 3 mps 751 mmHg 62%
    03:00 +9°C° 0 mm 2 mps 751 mmHg 63%
    04:00 +10°C° 0 mm 2 mps 751 mmHg 67%
    05:00 +10°C° 0 mm 2 mps 750 mmHg 70%
    06:00 +12°C° 0 mm 1 mps 751 mmHg 71%
    07:00 +14°C° 0 mm 2 mps 750 mmHg 66%
    08:00 +16°C° 0 mm 3 mps 750 mmHg 62%
    09:00 +18°C° 0 mm 3 mps 750 mmHg 57%
    10:00 +19°C° 0 mm 4 mps 750 mmHg 53%
    11:00 +20°C° 0 mm 5 mps 750 mmHg 49%
    12:00 +21°C° 0 mm 5 mps 749 mmHg 45%
    13:00 +20°C° 0 mm 6 mps 749 mmHg 44%
    14:00 +20°C° 0 mm 6 mps 749 mmHg 43%
    15:00 +20°C° 0 mm 6 mps 748 mmHg 41%
    16:00 +19°C° 0 mm 5 mps 748 mmHg 49%
    17:00 +17°C° 0 mm 5 mps 748 mmHg 56%
    18:00 +17°C° 0 mm 4 mps 748 mmHg 64%
    19:00 +14°C° 0 mm 4 mps 748 mmHg 69%
    20:00 +12°C° 0 mm 4 mps 748 mmHg 75%
    21:00 +10°C° 0 mm 3 mps 748 mmHg 81%
    22:00 +10°C° 0 mm 3 mps 748 mmHg 81%
    23:00 +9°C° 0 mm 3 mps 748 mmHg 80%

    Tomorrow, 23 April, Tuesday

    Time Temperature Precipitation Wind Pressure Humidity
    00:00 +9°C° 0 mm 3 mps 748 mmHg 80%
    01:00 +9°C° 0 mm 3 mps 747 mmHg 83%
    02:00 +9°C° 0 mm 3 mps 747 mmHg 86%
    03:00 +9°C° 0 mm 3 mps 747 mmHg 89%
    04:00 +9°C° 0 mm 3 mps 747 mmHg 89%
    05:00 +9°C° 0 mm 3 mps 747 mmHg 89%
    06:00 +9°C° 0 mm 3 mps 747 mmHg 89%
    07:00 +11°C° 0 mm 4 mps 747 mmHg 84%
    08:00 +12°C° 0 mm 5 mps 747 mmHg 78%
    09:00 +14°C° 0 mm 6 mps 747 mmHg 72%
    10:00 +14°C° 0 mm 6 mps 746 mmHg 69%
    11:00 +15°C° 0 mm 6 mps 746 mmHg 67%
    12:00 +16°C° 0 mm 7 mps 746 mmHg 64%
    13:00 +15°C° 0 mm 7 mps 746 mmHg 65%
    14:00 +15°C° 0 mm 7 mps 745 mmHg 65%
    15:00 +15°C° 0 mm 7 mps 745 mmHg 66%
    16:00 +14°C° 0 mm 7 mps 745 mmHg 70%
    17:00 +12°C° 0 mm 7 mps 745 mmHg 74%
    18:00 +11°C° 0 mm 6 mps 745 mmHg 78%
    19:00 +10°C° 0 mm 6 mps 745 mmHg 82%
    20:00 +8°C° 0 mm 6 mps 745 mmHg 87%
    21:00 +7°C° 0 mm 5 mps 745 mmHg 92%
    22:00 +7°C° 0 mm 5 mps 745 mmHg 92%
    23:00 +7°C° 0 mm 5 mps 745 mmHg 91%

    Day after tomorrow, 24 April, Wednesday

    Time Temperature Precipitation Wind Pressure Humidity
    00:00 +8°C° 0 mm 5 mps 744 mmHg 91%
    01:00 +8°C° 0 mm 5 mps 744 mmHg 91%
    02:00 +8°C° 0 mm 5 mps 743 mmHg 91%
    03:00 +8°C° 0 mm 6 mps 743 mmHg 90%
    04:00 +9°C° 0 mm 6 mps 742 mmHg 90%
    05:00 +9°C° 0 mm 6 mps 742 mmHg 89%
    06:00 +9°C° 0 mm 7 mps 742 mmHg 88%
    07:00 +9°C° 0 mm 7 mps 741 mmHg 87%
    08:00 +10°C° 0 mm 7 mps 741 mmHg 86%
    09:00 +10°C° 0 mm 8 mps 741 mmHg 84%
    10:00 +10°C° 0 mm 8 mps 740 mmHg 84%
    11:00 +11°C° 0 mm 8 mps 740 mmHg 83%
    12:00 +11°C° 0 mm 8 mps 740 mmHg 83%
    13:00 +10°C° 0 mm 8 mps 740 mmHg 85%
    14:00 +10°C° 0 mm 8 mps 739 mmHg 87%
    15:00 +10°C° 0 mm 8 mps 739 mmHg 89%
    16:00 +9°C° 2 mm 7 mps 739 mmHg 90%
    17:00 +9°C° 2 mm 5 mps 739 mmHg 92%
    18:00 +8°C° 2 mm 4 mps 739 mmHg 93%
    19:00 +8°C° 0.5 mm 3 mps 740 mmHg 94%
    20:00 +8°C° 0.5 mm 3 mps 740 mmHg 94%
    21:00 +7°C° 0.5 mm 2 mps 740 mmHg 94%
    22:00 +7°C° 0 mm 2 mps 740 mmHg 94%
    23:00 +7°C° 0 mm 3 mps 741 mmHg 93%

    25 April, Thursday

    Time Temperature Precipitation Wind Pressure Humidity
    00:00 +7°C° 0 mm 3 mps 741 mmHg 93%
    01:00 +7°C° 0 mm 3 mps 741 mmHg 93%
    02:00 +5°C° 0 mm 3 mps 741 mmHg 93%
    03:00 +5°C° 0 mm 3 mps 741 mmHg 93%
    04:00 +7°C° 0.1 mm 3 mps 740 mmHg 92%
    05:00 +6°C° 0.1 mm 4 mps 740 mmHg 92%
    06:00 +7°C° 0.1 mm 4 mps 740 mmHg 91%
    07:00 +7°C° 0.5 mm 5 mps 740 mmHg 91%
    08:00 +8°C° 0.5 mm 6 mps 740 mmHg 91%
    09:00 +8°C° 0.5 mm 7 mps 740 mmHg 91%
    10:00 +9°C° 0.2 mm 7 mps 740 mmHg 88%
    11:00 +10°C° 0.2 mm 7 mps 740 mmHg 85%
    12:00 +11°C° 0.2 mm 7 mps 740 mmHg 82%
    13:00 +11°C° 0.4 mm 6 mps 740 mmHg 81%
    14:00 +11°C° 0.4 mm 6 mps 740 mmHg 79%
    15:00 +12°C° 0.4 mm 5 mps 740 mmHg 78%
    16:00 +10°C° 0.5 mm 5 mps 740 mmHg 80%
    17:00 +10°C° 0.5 mm 5 mps 739 mmHg 82%
    18:00 +9°C° 0.5 mm 5 mps 739 mmHg 84%
    19:00 +10°C° 0.5 mm 4 mps 740 mmHg 88%
    20:00 +8°C° 0.5 mm 4 mps 740 mmHg 92%
    21:00 +8°C° 0.5 mm 3 mps 740 mmHg 95%
    22:00 +8°C° 0 mm 3 mps 741 mmHg 95%
    23:00 +8°C° 0 mm 3 mps 741 mmHg 94%

    26 April, Friday

    Time Temperature Precipitation Wind Pressure Humidity
    00:00 +8°C° 0 mm 3 mps 742 mmHg 94%
    01:00 +8°C° 0 mm 3 mps 743 mmHg 93%
    02:00 +7°C° 0 mm 4 mps 743 mmHg 92%
    03:00 +7°C° 0 mm 4 mps 744 mmHg 90%
    04:00 +7°C° 0 mm 4 mps 745 mmHg 90%
    05:00 +7°C° 0 mm 4 mps 745 mmHg 90%
    06:00 +7°C° 0 mm 4 mps 746 mmHg 90%
    07:00 +8°C° 0 mm 5 mps 747 mmHg 87%
    08:00 +8°C° 0 mm 5 mps 747 mmHg 85%
    09:00 +9°C° 0 mm 5 mps 748 mmHg 83%
    10:00 +9°C° 0.1 mm 5 mps 748 mmHg 82%
    11:00 +10°C° 0.1 mm 6 mps 749 mmHg 81%
    12:00 +10°C° 0.1 mm 6 mps 749 mmHg 80%
    13:00 +12°C° 0.2 mm 5 mps 749 mmHg 78%
    14:00 +12°C° 0.2 mm 5 mps 749 mmHg 76%
    15:00 +12°C° 0.2 mm 4 mps 749 mmHg 74%
    16:00 +12°C° 0 mm 4 mps 749 mmHg 74%
    17:00 +11°C° 0 mm 4 mps 749 mmHg 74%
    18:00 +11°C° 0 mm 3 mps 749 mmHg 74%
    19:00 +10°C° 0.1 mm 4 mps 749 mmHg 76%
    20:00 +8°C° 0.1 mm 5 mps 748 mmHg 79%
    21:00 +5°C° 0.1 mm 7 mps 748 mmHg 81%
    22:00 +5°C° 0.1 mm 8 mps 747 mmHg 79%
    23:00 +5°C° 0.1 mm 8 mps 746 mmHg 77%

    27 April, Saturday

    Time Temperature Precipitation Wind Pressure Humidity
    00:00 +5°C° 0.1 mm 9 mps 745 mmHg 75%
    01:00 +5°C° 0 mm 10 mps 745 mmHg 75%
    02:00 +4°C° 0 mm 11 mps 744 mmHg 75%
    03:00 +4°C° 0 mm 12 mps 744 mmHg 76%
    04:00 +4°C° 0.1 mm 13 mps 745 mmHg 75%
    05:00 +4°C° 0.1 mm 13 mps 746 mmHg 74%
    06:00 +4°C° 0.1 mm 13 mps 746 mmHg 73%
    07:00 +4°C° 0 mm 12 mps 747 mmHg 71%
    08:00 +4°C° 0 mm 12 mps 748 mmHg 69%
    09:00 +6°C° 0 mm 11 mps 749 mmHg 66%
    10:00 +6°C° 0.1 mm 10 mps 750 mmHg 62%
    11:00 +7°C° 0.1 mm 9 mps 750 mmHg 59%
    12:00 +7°C° 0.1 mm 9 mps 751 mmHg 55%
    13:00 +7°C° 0 mm 8 mps 750 mmHg 59%
    14:00 +7°C° 0 mm 8 mps 750 mmHg 62%
    15:00 +8°C° 0 mm 7 mps 750 mmHg 66%
    16:00 +7°C° 0.1 mm 6 mps 750 mmHg 71%
    17:00 +7°C° 0.1 mm 6 mps 750 mmHg 77%
    18:00 +6°C° 0.1 mm 5 mps 750 mmHg 83%
    19:00 +6°C° 0.1 mm 5 mps 751 mmHg 83%
    20:00 +4°C° 0.1 mm 6 mps 751 mmHg 83%
    21:00 +3°C° 0.1 mm 7 mps 751 mmHg 83%
    22:00 +3°C° 0 mm 6 mps 751 mmHg 84%
    23:00 +3°C° 0 mm 6 mps 751 mmHg 86%
    Show more